Volver al catálogo

CZ-4 DEB

ActivoSSO
NORAD 26306·DEBRIS·🇨🇳 China

Lanzado Oct 14, 1999 desde Taiyuan Satellite Launch Center

Loading…

Próximos Pases (próximas 24 horas)

TLE

ActualizadoSource: Space-Track

Época: Sep 14, 2026, 09:17 UTC

1 26306U 99057GP  26257.38699253  .00000148  00000-0  61681-4 0  9993
2 26306  98.7357 307.0963 0094670 301.0942  69.0824 14.38237875386094

Sigue CZ-4 DEB en tiempo real con AllMySat

Download on the App Store